TimeEDT,TemperatureF,Dew PointF,Humidity,Sea Level PressureIn,VisibilityMPH,Wind Direction,Wind SpeedMPH,Gust SpeedMPH,PrecipitationIn,Events,Conditions,WindDirDegrees,DateUTC
12:53 AM,48.0,39.0,71,30.09,10.0,Calm,Calm,-,N/A,,Overcast,0,2012-03-13 04:53:00
1:53 AM,48.0,37.9,68,30.07,10.0,Calm,Calm,-,N/A,,Scattered Clouds,0,2012-03-13 05:53:00
2:53 AM,48.9,39.0,69,30.07,10.0,Calm,Calm,-,N/A,,Overcast,0,2012-03-13 06:53:00
3:53 AM,46.9,44.1,90,30.05,7.0,Calm,Calm,-,0.03,Rain,Light Rain,0,2012-03-13 07:53:00
4:53 AM,46.9,45.0,93,30.04,10.0,Calm,Calm,-,0.01,,Overcast,0,2012-03-13 08:53:00
5:53 AM,48.0,46.0,93,30.05,10.0,Calm,Calm,-,0.00,,Overcast,0,2012-03-13 09:53:00
6:53 AM,48.9,48.0,97,30.04,6.0,Calm,Calm,-,0.01,Rain,Light Rain,0,2012-03-13 10:53:00
7:53 AM,48.9,48.0,97,30.05,4.0,Calm,Calm,-,0.00,Rain,Light Rain,0,2012-03-13 11:53:00
8:53 AM,52.0,51.1,97,30.05,3.0,Calm,Calm,-,0.00,,Scattered Clouds,0,2012-03-13 12:53:00
9:35 AM,55.4,53.6,94,30.04,6.0,South,3.5,-,N/A,,Mostly Cloudy,180,2012-03-13 13:35:00
9:43 AM,55.4,53.6,94,30.03,6.0,SSE,4.6,-,N/A,,Mostly Cloudy,150,2012-03-13 13:43:00
9:53 AM,57.0,54.0,89,30.04,6.0,South,4.6,-,N/A,,Overcast,170,2012-03-13 13:53:00
10:05 AM,57.2,53.6,88,30.03,7.0,Calm,Calm,-,N/A,,Overcast,0,2012-03-13 14:05:00
10:53 AM,60.1,55.0,83,30.03,9.0,South,3.5,-,N/A,,Overcast,170,2012-03-13 14:53:00
11:36 AM,62.6,53.6,72,30.01,10.0,Variable,4.6,-,N/A,,Mostly Cloudy,0,2012-03-13 15:36:00
11:53 AM,64.9,55.0,70,30.01,10.0,South,8.1,-,N/A,,Partly Cloudy,190,2012-03-13 15:53:00
1:53 PM,72.0,55.0,55,29.96,10.0,Variable,6.9,-,N/A,,Clear,0,2012-03-13 17:53:00
2:53 PM,73.9,52.0,46,29.93,10.0,SSW,9.2,18.4,N/A,,Mostly Cloudy,210,2012-03-13 18:53:00
3:53 PM,75.0,52.0,44,29.92,10.0,WSW,9.2,-,N/A,,Partly Cloudy,240,2012-03-13 19:53:00
4:53 PM,75.9,52.0,43,29.90,10.0,Variable,4.6,-,N/A,,Mostly Cloudy,0,2012-03-13 20:53:00
5:53 PM,75.0,51.1,43,29.90,10.0,Variable,3.5,-,N/A,,Partly Cloudy,0,2012-03-13 21:53:00
6:53 PM,71.1,52.0,51,29.91,10.0,SSW,4.6,-,N/A,,Partly Cloudy,200,2012-03-13 22:53:00
7:53 PM,64.9,52.0,63,29.93,10.0,South,3.5,-,N/A,,Partly Cloudy,180,2012-03-13 23:53:00
8:53 PM,64.0,51.1,63,29.94,10.0,Calm,Calm,-,N/A,,Clear,0,2012-03-14 00:53:00
9:53 PM,61.0,51.1,70,29.95,10.0,Calm,Calm,-,N/A,,Partly Cloudy,0,2012-03-14 01:53:00
10:53 PM,57.9,51.1,78,29.96,10.0,Calm,Calm,-,N/A,,Clear,0,2012-03-14 02:53:00
11:53 PM,55.9,50.0,80,29.97,10.0,Calm,Calm,-,N/A,,Clear,0,2012-03-14 03:53:00